Chignik, AK

5:54 PM AKDT on April 28, 2017 (GMT -0800)
Chignik

Weather History for PAJC - October, 2012

Change the Weather History Date:

Monday, October 15, 2012

  Actual Average Record
Temperature  
Mean Temperature 34 °F -  
Max Temperature 35 °F 43 °F 60 °F (2013)
Min Temperature 33 °F 37 °F 33 °F (1996)
Degree Days  
Heating Degree Days 31    
Moisture  
Dew Point 18 °F    
Average Humidity 50    
Maximum Humidity 60    
Minimum Humidity 41    
Precipitation  
Precipitation 0.00 in - - ()
Sea Level Pressure  
Sea Level Pressure 29.43 in    
Wind  
Wind Speed - (North)    
Max Wind Speed -    
Max Gust Speed -    
Visibility 10 miles    
Events      
Averages and records for this station are not official NWS values.
T = Trace of Precipitation, MM = Missing Value Source: NWS Daily Summary

Daily Weather History Graph

Daily Weather History Graph

Search for Another Location

Airport or City:

Trip Planner

Search our weather history database for the weather conditions in past years. The results will help you decide how hot, cold, wet, or windy it might be!

Date:

Astronomy

Oct. 15, 2012 Rise Set
Actual Time 9:06 AM AKDT 7:30 PM AKDT
Civil Twilight 8:28 AM AKDT 8:08 PM AKDT
Nautical Twilight 7:45 AM AKDT 8:51 PM AKDT
Astronomical Twilight 7:01 AM AKDT 9:34 PM AKDT
Moon 9:45 AM AKDT (10/15) 7:19 PM AKDT (10/15)
Length of Visible Light 11h 39m
Length of Day
10h 23m
New Moon, 0% of the Moon is Illuminated
Oct 15
New Moon
Oct 21
First Quarter
Oct 29
Full
Nov 6
Last Quarter
Nov 13
New

Hourly Weather History & Observations

Time (AKDT) Temp. Dew Point Humidity Pressure Visibility Wind Dir Wind Speed Gust Speed Precip Events Conditions
12:16 AM 35.6 °F 19.4 °F 52% 29.24 in 10.0 mi North - - N/A   Overcast
12:36 AM 35.6 °F 19.4 °F 52% 29.25 in 10.0 mi North - - N/A   Overcast
12:56 AM 35.6 °F 19.4 °F 52% 29.25 in 10.0 mi North - - N/A   Overcast
1:16 AM 35.6 °F 19.4 °F 52% 29.26 in 10.0 mi North - - N/A   Overcast
1:36 AM 35.6 °F 19.4 °F 52% 29.26 in 10.0 mi North - - N/A   Overcast
1:56 AM 35.6 °F 19.4 °F 52% 29.27 in 10.0 mi North - - N/A   Overcast
2:16 AM 35.6 °F 19.4 °F 52% 29.27 in 10.0 mi North - - N/A   Overcast
2:36 AM 35.6 °F 19.4 °F 52% 29.28 in 10.0 mi North - - N/A   Overcast
2:56 AM 35.6 °F 19.4 °F 52% 29.27 in 10.0 mi North - - N/A   Overcast
3:16 AM 35.6 °F 19.4 °F 52% 29.28 in 10.0 mi North - - N/A   Overcast
3:36 AM 35.6 °F 21.2 °F 56% 29.28 in 10.0 mi North - - N/A   Overcast
3:56 AM 35.6 °F 19.4 °F 52% 29.28 in 10.0 mi North - - N/A   Overcast
4:16 AM 35.6 °F 17.6 °F 48% 29.28 in 10.0 mi North - - N/A   Overcast
4:36 AM 35.6 °F 19.4 °F 52% 29.29 in 10.0 mi North - - N/A   Overcast
4:56 AM 35.6 °F 17.6 °F 48% 29.29 in 10.0 mi North - - N/A   Overcast
5:16 AM 35.6 °F 17.6 °F 48% 29.30 in 10.0 mi North - - N/A   Overcast
5:36 AM 35.6 °F 19.4 °F 52% 29.30 in 10.0 mi North - - N/A   Overcast
5:56 AM 35.6 °F 19.4 °F 52% 29.30 in 10.0 mi North - - N/A   Overcast
6:16 AM 35.6 °F 19.4 °F 52% 29.31 in 10.0 mi North - - N/A   Overcast
6:36 AM 35.6 °F 17.6 °F 48% 29.31 in 10.0 mi North - - N/A   Overcast
6:56 AM 35.6 °F 17.6 °F 48% 29.32 in 10.0 mi North - - N/A   Overcast
7:16 AM 35.6 °F 17.6 °F 48% 29.33 in 10.0 mi North - - N/A   Overcast
7:36 AM 35.6 °F 15.8 °F 44% 29.34 in 10.0 mi North - - N/A   Overcast
7:56 AM 35.6 °F 17.6 °F 48% 29.34 in 10.0 mi North - - N/A   Overcast
8:16 AM 35.6 °F 17.6 °F 48% 29.35 in 10.0 mi North - - N/A   Overcast
8:36 AM 33.8 °F 19.4 °F 56% 29.35 in 10.0 mi North - - N/A   Overcast
8:56 AM 33.8 °F 19.4 °F 56% 29.36 in 9.0 mi North - - N/A   Overcast
9:16 AM 35.6 °F 17.6 °F 48% 29.36 in 10.0 mi North - - N/A   Overcast
9:36 AM 33.8 °F 19.4 °F 56% 29.37 in 7.0 mi North - - N/A   Overcast
9:56 AM 33.8 °F 19.4 °F 56% 29.37 in 10.0 mi North - - N/A   Overcast
10:16 AM 33.8 °F 19.4 °F 56% 29.39 in 10.0 mi North - - N/A   Overcast
10:36 AM 33.8 °F 19.4 °F 56% 29.39 in 10.0 mi North - - N/A   Overcast
10:56 AM 35.6 °F 19.4 °F 52% 29.40 in 10.0 mi North - - N/A   Overcast
11:16 AM 35.6 °F 17.6 °F 48% 29.40 in 10.0 mi North - - N/A   Overcast
11:36 AM 35.6 °F 19.4 °F 52% 29.41 in 10.0 mi North - - N/A   Overcast
11:56 AM 35.6 °F 19.4 °F 52% 29.42 in 10.0 mi North - - N/A   Overcast
12:16 PM 35.6 °F 21.2 °F 56% 29.43 in 9.0 mi North - - N/A   Overcast
12:36 PM 35.6 °F 19.4 °F 52% 29.43 in 10.0 mi North - - N/A   Overcast
1:16 PM 35.6 °F 19.4 °F 52% 29.44 in 10.0 mi North - - N/A   Overcast
1:36 PM 33.8 °F 21.2 °F 60% 29.45 in 7.0 mi North - - N/A   Overcast
1:56 PM 33.8 °F 21.2 °F 60% 29.46 in 7.0 mi North - - N/A   Overcast
2:16 PM 35.6 °F 21.2 °F 56% 29.46 in 10.0 mi North - - N/A   Overcast
2:36 PM 35.6 °F 19.4 °F 52% 29.47 in 10.0 mi North - - N/A   Overcast
2:56 PM 33.8 °F 19.4 °F 56% 29.48 in 10.0 mi North - - N/A   Overcast
3:16 PM 33.8 °F 21.2 °F 60% 29.48 in 6.0 mi North - - N/A   Overcast
3:36 PM 33.8 °F 19.4 °F 56% 29.49 in 9.0 mi North - - N/A   Mostly Cloudy
3:56 PM 35.6 °F 17.6 °F 48% 29.50 in 10.0 mi North - - N/A   Overcast
4:16 PM 35.6 °F 17.6 °F 48% 29.51 in 10.0 mi North - - N/A   Overcast
4:36 PM 35.6 °F 17.6 °F 48% 29.52 in 10.0 mi North - - N/A   Overcast
4:56 PM 35.6 °F 17.6 °F 48% 29.52 in 10.0 mi North - - N/A   Overcast
5:16 PM 33.8 °F 15.8 °F 48% 29.53 in 10.0 mi North - - N/A   Overcast
5:36 PM 33.8 °F 15.8 °F 48% 29.52 in 10.0 mi North - - N/A   Overcast
5:56 PM 33.8 °F 17.6 °F 52% 29.52 in 10.0 mi North - - N/A   Overcast
6:16 PM 33.8 °F 15.8 °F 48% 29.53 in 10.0 mi North - - N/A   Overcast
6:36 PM 33.8 °F 17.6 °F 52% 29.54 in 10.0 mi North - - N/A   Overcast
6:56 PM 33.8 °F 15.8 °F 48% 29.54 in 10.0 mi North - - N/A   Overcast
7:16 PM 33.8 °F 14.0 °F 44% 29.55 in 10.0 mi North - - N/A   Overcast
7:36 PM 33.8 °F 15.8 °F 48% 29.56 in 10.0 mi North - - N/A   Overcast
7:56 PM 33.8 °F 14.0 °F 44% 29.56 in 10.0 mi North - - N/A   Mostly Cloudy
8:16 PM 33.8 °F 15.8 °F 48% 29.56 in 10.0 mi North - - N/A   Overcast
8:36 PM 33.8 °F 17.6 °F 52% 29.58 in 8.0 mi North - - N/A   Mostly Cloudy
8:56 PM 33.8 °F 15.8 °F 48% 29.59 in 10.0 mi North - - N/A   Overcast
9:16 PM 33.8 °F 12.2 °F 41% 29.60 in 10.0 mi North - - N/A   Mostly Cloudy
9:36 PM 33.8 °F 12.2 °F 41% 29.60 in 10.0 mi North - - N/A   Mostly Cloudy
9:56 PM 33.8 °F 14.0 °F 44% 29.61 in 10.0 mi North - - N/A   Mostly Cloudy
10:16 PM 33.8 °F 17.6 °F 52% 29.61 in 10.0 mi North - - N/A   Scattered Clouds
10:36 PM 33.8 °F 15.8 °F 48% 29.62 in 10.0 mi North - - N/A   Partly Cloudy
10:56 PM 33.8 °F 12.2 °F 41% 29.62 in 10.0 mi North - - N/A   Partly Cloudy
11:16 PM 33.8 °F 12.2 °F 41% 29.63 in 10.0 mi North - - N/A   Clear
11:36 PM 33.8 °F 12.2 °F 41% 29.62 in 10.0 mi North - - N/A   Partly Cloudy
11:56 PM 33.8 °F 15.8 °F 48% 29.63 in 10.0 mi North - - N/A   Scattered Clouds